This is the latest recevied weather packets stored in our database for station/object IW2NTF-3. If no packets are shown the sender has not sent any weather packets the latest 10 day(s).
| Time | Temp. | Humidity | Pressure | Rain* | Wind** | Luminosity | Snow |
|---|---|---|---|---|---|---|---|
| 1778056623 | 13.89° C | 90% | 1007.5 hPa | 2.03 mm | - | 290 W/m² | - |
| 1778056563 | 13.89° C | 90% | 1007.1 hPa | 2.29 mm | - | 272 W/m² | - |
| 1778056503 | 13.89° C | 90% | 1006.8 hPa | 2.29 mm | - | 255 W/m² | - |
| 1778056443 | 13.89° C | 90% | 1006.8 hPa | 2.29 mm | - | 234 W/m² | - |
| 1778056383 | 13.89° C | 90% | 1006.7 hPa | 2.29 mm | - | 214 W/m² | - |
| 1778056323 | 13.89° C | 90% | 1006.9 hPa | 2.29 mm | - | 193 W/m² | - |
| 1778056263 | 13.89° C | 90% | 1006.9 hPa | 2.29 mm | - | 153 W/m² | - |
| 1778056203 | 13.89° C | 90% | 1007 hPa | 2.29 mm | - | 139 W/m² | - |
| 1778056143 | 13.89° C | 90% | 1007 hPa | 2.29 mm | - | 127 W/m² | - |
| 1778056083 | 13.89° C | 90% | 1007 hPa | 2.29 mm | - | 118 W/m² | - |
| 1778056023 | 13.89° C | 90% | 1006.9 hPa | 2.29 mm | - | 111 W/m² | - |
| 1778055963 | 13.89° C | 90% | 1006.9 hPa | 2.29 mm | - | 104 W/m² | - |
| 1778055903 | 13.89° C | 90% | 1006.9 hPa | 2.29 mm | - | 97 W/m² | - |
| 1778055843 | 13.89° C | 90% | 1006.9 hPa | 2.29 mm | - | 93 W/m² | - |
| 1778055783 | 13.89° C | 90% | 1006.8 hPa | 2.29 mm | - | 88 W/m² | - |
| 1778055723 | 13.89° C | 90% | 1006.9 hPa | 2.29 mm | - | 81 W/m² | - |
| 1778055663 | 13.89° C | 90% | 1006.9 hPa | 2.29 mm | - | 74 W/m² | - |
| 1778055603 | 13.89° C | 89% | 1007 hPa | 2.29 mm | - | 62 W/m² | - |
| 1778055543 | 13.89° C | 89% | 1007 hPa | 2.29 mm | - | 56 W/m² | - |
| 1778055483 | 13.89° C | 89% | 1007.2 hPa | 2.29 mm | - | 53 W/m² | - |
| 1778055424 | 13.89° C | 89% | 1007.5 hPa | 2.29 mm | - | 49 W/m² | - |
| 1778055364 | 13.89° C | 89% | 1007.5 hPa | 2.03 mm | - | 44 W/m² | - |
| 1778055303 | 13.89° C | 89% | 1007.7 hPa | 2.03 mm | - | 40 W/m² | - |
| 1778055244 | 13.89° C | 89% | 1007.9 hPa | 2.03 mm | - | 37 W/m² | - |
| 1778055183 | 13.89° C | 89% | 1007.9 hPa | 1.78 mm | - | 37 W/m² | - |
* Rain latest hour (hover to see other rain measurements)
** Current wind speed in m/s (hover to see current wind gust speed)